カタログに戻る

NAVSTAR 22

USA 66

運用中ナビゲーションMEO
NORAD 20959·PAYLOAD·🇺🇸 United States

打ち上げ Nov 26, 1990 から Cape Canaveral Space Force Station

Loading…

次のパス (今後24時間)

TLE

最新Source: Space-Track

元期: Sep 13, 2026, 09:24 UTC

1 20959U 90103A   26256.39234808 -.00000067  00000-0  00000+0 0  9999
2 20959  56.2820  48.6723 0023164  92.3006 267.9652  1.88155267257527

AllMySatでNAVSTAR 22をリアルタイム追跡

Download on the App Store